This demonstration page uses our WeatherBlox Daily Observations layout. Learn more.

Left ArrowRight Arrow

Hourly Observations for October 14, 2018

Temp ( °F °C ) Dew Point ( °F °C ) Humidity (%) Winds ( mph kmh ) Pressure ( in mb ) Visibility ( mi km ) Precip ( " mm )
12:54 am 00:54 Cloudy 49 9.4 45 7.2 86 86 NNE 7 11 29.9 1013 10 16.0934 0 0
1:11 am 01:11 Cloudy 50 10 45 7.2 83 83 N 12 19 29.91 1013 10 16.0934 0 0
1:54 am 01:54 Cloudy 49 9.4 44 6.7 83 83 N 14 22 29.92 1013 10 16.0934 0 0
2:54 am 02:54 Cloudy 46 7.8 40 4.4 79 79 NNE 17 28 29.94 1014 10 16.0934 0 0
3:20 am 03:20 Cloudy 45 7.2 39 3.9 80 80 N 20 31 30 1016 10 16.0934 0 0
3:54 am 03:54 Cloudy 44 6.7 38 3.3 79 79 N 17 28 29.96 1015 10 16.0934 0 0
4:54 am 04:54 Cloudy 43 6.1 38 3.3 82 82 N 17 28 29.97 1015 10 16.0934 0 0.0254
5:54 am 05:54 Cloudy with Light Rain 41 5 37 2.8 86 86 N 23 37 30.02 1017 10 16.0934 0 0.0254
6:54 am 06:54 Cloudy with Light Rain 40 4.4 37 2.8 89 89 N 15 24 30.06 1018 4 6.43736 0 0.0254
7:33 am 07:33 Windy with Snow Likely 37 2.8 35 1.7 93 93 N 22 35 30.12 1020 2.5 4.02335 0.01 0.254
7:38 am 07:38 Cloudy with Light Rain 37 2.8 35 1.7 93 93 N 21 33 30.12 1020 3 4.82802 0.02 0.508
7:45 am 07:45 Cloudy with Light Rain 37 2.8 35 1.7 93 93 N 22 35 30.12 1020 7 11.26538 0.02 0.508
7:54 am 07:54 Cloudy with Light Rain 37 2.8 34 1.1 89 89 N 22 35 30.09 1019 3 4.82802 0.02 0.508
8:48 am 08:48 Windy with Snow Likely 34 1 32 0 93 93 N 25 41 30.18 1022 4 6.43736 0.02 0.508
8:54 am 08:54 Windy with Snow Likely 34 1.1 32 0 92 92 N 21 33 30.15 1021 4 6.43736 0.03 0.762
9:05 am 09:05 Windy with Snow Likely 35 1.7 32 0 89 89 N 21 33 30.18 1022 2.5 4.02335 0 0.0254
9:16 am 09:16 Windy with Snow Likely 34 1.1 32 0 92 92 N 21 33 30.21 1023 1.5 2.41401 0 0.0254
9:25 am 09:25 Mostly Cloudy with Light Snow 34 1.1 31 -0.6 89 89 N 24 39 30.21 1023 0.75 1.207005 0.01 0.254
9:36 am 09:36 Cloudy with Snow 33 0.6 32 0 96 96 N 16 26 30.21 1023 0.5 0.80467 0.03 0.762
9:54 am 09:54 Mostly Cloudy with Snow 33 0.6 32 0 96 96 N 23 37 30.15 1021 0.25 0.402335 0.06 1.524
10:06 am 10:06 Cloudy with Snow 33 0.6 32 0 96 96 N 20 31 30.18 1022 0.5 0.80467 0.01 0.254
10:22 am 10:22 Mostly Cloudy with Heavy Snow 33 0.6 32 0 96 96 N 21 33 30.21 1023 0.25 0.402335 0.04 1.016
10:32 am 10:32 Mostly Cloudy with Heavy Snow 33 0.6 32 0 96 96 N 18 30 30.21 1023 0.25 0.402335 0.05 1.27
10:47 am 10:47 Mostly Cloudy with Heavy Snow 33 0.6 32 0 96 96 N 18 30 30.21 1023 0.25 0.402335 0.08 2.032
10:54 am 10:54 Mostly Cloudy with Heavy Snow 33 0.6 32 0 96 96 N 17 28 30.18 1022 0.25 0.402335 0.09 2.286
11:03 am 11:03 Mostly Cloudy with Snow 33 0.6 32 0 96 96 N 17 28 30.24 1024 0.5 0.80467 0.02 0.508
11:24 am 11:24 Cloudy with Snow 33 0.6 32 0 96 96 N 13 20 30.24 1024 0.5 0.80467 0.04 1.016
11:54 am 11:54 Cloudy with Snow 33 0.6 32 0 96 96 N 14 22 30.21 1023 0.5 0.80467 0.05 1.27
12:02 pm 12:02 Mostly Cloudy with Heavy Snow 33 0.6 32 0 96 96 N 14 22 30.24 1024 0.25 0.402335 0.02 0.508
12:12 pm 12:12 Mostly Cloudy with Heavy Snow 33 0.6 31 -0.6 92 92 N 16 26 30.27 1025 0.25 0.402335 0.05 1.27
12:23 pm 12:23 Mostly Cloudy with Heavy Snow 32 0 31 -0.6 96 96 N 17 28 30.27 1025 0.25 0.402335 0.07 1.778
12:51 pm 12:51 Mostly Cloudy with Heavy Snow 32 0 32 0 100 100 N 12 19 30.27 1025 0.25 0.402335 0.15 3.81
12:54 pm 12:54 Mostly Cloudy with Snow 33 0.6 32 0 96 96 N 13 20 30.22 1023 0.5 0.80467 0.16 4.064
1:00 pm 13:00 Windy with Snow Likely 32 0 31 -0.6 96 96 N 20 31 30.27 1025 1 1.60934 0 0.0254
1:13 pm 13:13 Cloudy with Light Snow 33 0.6 31 -0.6 92 92 N 17 28 30.27 1025 1 1.60934 0 0.0254
1:22 pm 13:22 Cloudy with Light Snow 32 0 31 -0.6 96 96 N 16 26 30.27 1025 0.75 1.207005 0 0.0254
1:31 pm 13:31 Cloudy with Snow 32 0 31 -0.6 96 96 NNW 13 20 30.27 1025 0.5 0.80467 0.01 0.254
1:34 pm 13:34 Mostly Cloudy with Heavy Snow 32 0 31 -0.6 96 96 NNW 16 26 30.27 1025 0.25 0.402335 0.01 0.254
1:52 pm 13:52 Mostly Cloudy with Snow 32 0 30 -1 93 93 NNW 17 28 30.27 1025 0.5 0.80467 0.03 0.762
1:54 pm 13:54 Mostly Cloudy with Snow 32 0 31 -0.6 96 96 N 16 26 30.22 1023 0.5 0.80467 0.03 0.762
2:09 pm 14:09 Cloudy with Light Snow 32 0 30 -1.1 92 92 N 16 26 30.24 1024 1 1.60934 0 0.0254
2:21 pm 14:21 Cloudy with Light Snow 33 0.6 31 -0.6 92 92 NNW 12 19 30.27 1025 3 4.82802 0.01 0.254
2:29 pm 14:29 Cloudy with Light Snow 33 0.6 30 -1.1 89 89 N 13 20 30.27 1025 5 8.0467 0.01 0.254
2:54 pm 14:54 Cloudy 34 1.1 29 -1.7 82 82 N 18 30 30.22 1024 9 14.48406 0.01 0.254
3:54 pm 15:54 Cloudy 34 1.1 33 0.6 97 97 N 17 28 30.24 1024 10 16.0934 0 0.0254
4:54 pm 16:54 Cloudy 36 2.2 28 -2.2 73 73 NNW 16 26 30.24 1024 10 16.0934 0 0.0254
5:54 pm 17:54 Cloudy 35 1.7 29 -1.7 78 78 NNW 10 17 30.26 1025 10 16.0934 0 0
6:54 pm 18:54 Cloudy 35 1.7 28 -2.2 76 76 NNW 10 17 30.28 1026 10 16.0934 0 0
7:54 pm 19:54 Cloudy 35 1.7 28 -2.2 76 76 NNW 8 13 30.3 1026 10 16.0934 0 0
8:54 pm 20:54 Cloudy 35 1.7 26 -3.3 70 70 NNW 14 22 30.32 1027 10 16.0934 0 0
9:54 pm 21:54 Mostly Cloudy 34 1.1 25 -3.9 70 70 NNW 10 17 30.35 1028 10 16.0934 0 0
10:54 pm 22:54 Cloudy 34 1.1 26 -3.3 73 73 NW 9 15 30.37 1029 10 16.0934 0 0
11:54 pm 23:54 Cloudy 33 0.6 26 -3.3 75 75 NW 8 13 30.38 1029 10 16.0934 0 0

Powered by AerisWeather